Regional Weather Roundup
Issued by NWS

Home | Current Version | Previous Version | Text Only | Print | Product List | Glossary On
Versions: 1 2 3 4 5 6 7 8 9 10 11 12 13 14 15 16 17 18 19 20 21 22 23 24 25 26 27 28 29 30 31 32 33 34 35 36 37 38 39 40 41 42 43 44 45 46 47 48 49 50
642
ASUS46 KSTO 221315
RWRCA

NORTHERN AND CENTRAL CA REGIONAL WEATHER ROUNDUP
NATIONAL WEATHER SERVICE SACRAMENTO CA
500 AM PST THU FEB 22 2018

NOTE: FAIR INDICATES FEW OR NO CLOUDS BELOW 12,000 FEET WITH NO
SIGNIFICANT WEATHER AND/OR OBSTRUCTIONS TO VISIBILITY.

CAZ001-003-221400-
NORTHWEST AREA

CITY           SKY/WX    TMP DP  RH WIND       PRES   REMARKS
CRESCENT CITY  LGT RAIN  39  35  86 SE6       30.19F WCI  35
UKIAH          FAIR      39  27  62 NW13      30.19R WCI  31
$$

CAZ006-505>513-221400-
BAY AREA

CITY           SKY/WX    TMP DP  RH WIND       PRES   REMARKS
SANTA ROSA     FAIR      33  30  88 NW3       30.16S
SAN RAFAEL     N/A       46  MM  MM MISG
NAPA           FAIR      32  31  96 SW10      30.17S WCI  24
CONCORD        FAIR      40  35  83 S7        30.18F
OAKLAND CITY   N/A      MM  MM  MM MISG
OAKLAND        FAIR      47  38  71 W15       30.20R
SAN FRAN CITY  N/A       47  MM  62 MISG
SAN FRAN ARPT  MOCLDY    48  34  58 W20       30.20S
LIVERMORE      CLOUDY    43  39  86 NW6       30.18R
HAYWARD        CLOUDY    48  36  63 W10       30.19S
REDWOOD CITY   N/A       47  MM  67 MISG
MOFFETT ARPT   FAIR      46  38  73 SW3       30.21S
SAN JOSE ARPT  LGT RAIN  42  38  85 E3        30.21S
$$
CAZ034-037-514>518-221400-
CENTRAL COAST

CITY           SKY/WX    TMP DP  RH WIND       PRES   REMARKS
WATSONVILLE    LGT RAIN  40  38  93 SW3       30.22R
SALINAS        FAIR      36  32  85 VRB3      30.22S
MONTEREY       LGT RAIN  43  37  79 CALM      30.23R
SAN LUIS OBISP FAIR      34  29  82 CALM      30.21R
SANTA MARIA    FAIR      35  32  88 MISG      30.21R
$$
CAZ015-016-221400-
NORTHERN SACRAMENTO VALLEY

CITY           SKY/WX    TMP DP  RH WIND       PRES   REMARKS
REDDING        FAIR      30  26  85 W8        30.12S WCI  22
RED BLUFF      FAIR      36  22  56 NW5       30.14S WCI  32
OROVILLE       FAIR      39  31  72 SE7       30.14R WCI  34
$$
CAZ016>018-221400-
SOUTHERN SACRAMENTO VALLEY

CITY           SKY/WX    TMP DP  RH WIND       PRES   REMARKS
AUBURN         CLOUDY    37  30  75 SE8       30.10S WCI  31
BEALE AFB      FAIR      38  32  77 SE10      30.12R WCI  31
LINCOLN        FAIR      37  32  81 S12       30.13R WCI  30
MARYSVILLE     FAIR      38  34  85 SE12      30.13S WCI  30
SAC INTL ARPT  FAIR      39  36  89 S13       30.12F WCI  31
MATHER AIRPORT NOT AVBL
DOWNTOWN SAC   N/A       40  MM  MM MISG
SAC EXEC ARPT  FAIR      39  36  89 S6        30.14F WCI  35
VACAVILLE      FAIR      41  36  82 SW16      30.14F
TRAVIS AFB     FAIR      40  39  96 SW17      30.12F WCI  31
$$
CAZ019>021-221400-
SAN JOAQUIN VALLEY

CITY           SKY/WX    TMP DP  RH WIND       PRES   REMARKS
STOCKTON       FAIR      32  26  78 SE5       30.18S WCI  27
MODESTO        FAIR      34  27  75 CALM      30.19S
MERCED         CLOUDY    32  25  75 SE5       30.19S WCI  27
LEMOORE        FAIR      31  19  61 CALM      30.20S
FRESNO         CLOUDY    39  24  55 CALM      30.20S
HANFORD        CLOUDY    32  30  92 CALM      30.20S FOG
PORTERVILLE    FAIR      34  20  56 E5        30.20R WCI  30
BAKERSFIELD    FAIR      34  18  52 CALM      30.18F
$$
CAZ011-012-071-221400-
NORTHERN MOUNTAINS

CITY           SKY/WX    TMP DP  RH WIND       PRES   REMARKS
YREKA          CLOUDY    29  22  75 CALM      30.03F
MOUNT SHASTA   CLOUDY    28  21  75 CALM      29.99F
ALTURAS        MOCLDY    22  16  78 N5        29.96S WCI  16
$$
CAZ011-012-071-221400-
SIERRA NEVADA MTNS

CITY           SKY/WX    TMP DP  RH WIND       PRES   REMARKS
BLUE CANYON    CLOUDY    24  20  84 S14       29.97F WCI  12
TRUCKEE        CLOUDY    23  12  63 S10G17    29.92F WCI  12
TAHOE VLY ARPT CLOUDY    21   8  57 S8        29.91F WCI  11
MAMMOTH LAKES  FAIR      13   9  83 CALM      29.92F
$$




USA.gov is the U.S. government's official web portal to all federal, state and local government web resources and services.